This demonstration page uses our WeatherBlox Daily Observations layout. Learn more.

Left ArrowRight Arrow

53.62937, 11.41316

Hourly Observations for June 10, 2015

Temp ( °F °C ) Dew Point ( °F °C ) Humidity (%) Winds ( mph kmh ) Pressure ( in mb ) Visibility ( mi km ) Precip ( " mm )
6:20 am 06:20 Mostly Sunny 43 6 43 6 100 100 VRB 1 2 30.39 1029 7 11 N/A
6:50 am 06:50 Mostly Sunny 50 10 48 9 94 94 VRB 1 2 30.39 1029 7 11 N/A
7:20 am 07:20 Mostly Sunny 54 12 48 9 82 82 E 3 6 30.39 1029 7 11 N/A
7:50 am 07:50 Mostly Sunny 54 12 46 8 77 77 ENE 9 15 30.39 1029 7 11 N/A
8:20 am 08:20 Mostly Sunny 55 13 48 9 77 77 ENE 7 11 30.39 1029 7 11 N/A
8:50 am 08:50 Mostly Sunny 57 14 46 8 67 67 E 5 7 30.39 1029 7 11 N/A
9:20 am 09:20 Mostly Sunny 59 15 46 8 63 63 E 5 7 30.39 1029 7 11 N/A
9:50 am 09:50 Mostly Sunny 61 16 45 7 55 55 VRB 5 7 30.39 1029 7 11 N/A
10:20 am 10:20 Mostly Sunny 61 16 43 6 52 52 NNE 6 9 30.39 1029 7 11 N/A
10:50 am 10:50 Mostly Sunny 63 17 43 6 49 49 VRB 3 6 30.36 1028 7 11 N/A
11:20 am 11:20 Mostly Sunny 64 18 43 6 46 46 VRB 6 9 30.36 1028 7 11 N/A
11:50 am 11:50 Mostly Sunny 64 18 41 5 43 43 N 5 7 30.36 1028 7 11 N/A
12:20 pm 12:20 Mostly Sunny 66 19 41 5 40 40 VRB 3 6 30.36 1028 7 11 N/A
12:50 pm 12:50 Mostly Sunny 64 18 41 5 43 43 VRB 3 6 30.36 1028 7 11 N/A
1:20 pm 13:20 Mostly Sunny 66 19 39 4 37 37 VRB 5 7 30.36 1028 7 11 N/A
1:50 pm 13:50 Mostly Sunny 68 20 43 6 40 40 NNE 6 9 30.36 1028 7 11 N/A
2:20 pm 14:20 Mostly Sunny 68 20 39 4 35 35 N 6 9 30.33 1027 7 11 N/A
2:50 pm 14:50 Mostly Sunny 68 20 43 6 40 40 NNE 6 9 30.33 1027 7 11 N/A
3:20 pm 15:20 Mostly Sunny 68 20 39 4 35 35 N 3 6 30.33 1027 7 11 N/A
3:50 pm 15:50 Mostly Sunny 70 21 39 4 33 33 VRB 6 9 30.33 1027 7 11 N/A
4:20 pm 16:20 Mostly Sunny 68 20 39 4 35 35 VRB 3 6 30.30 1026 7 11 N/A
4:50 pm 16:50 Mostly Sunny 70 21 41 5 35 35 VRB 2 4 30.30 1026 7 11 N/A
5:20 pm 17:20 Mostly Sunny 66 19 39 4 37 37 ENE 8 13 30.30 1026 7 11 N/A
5:50 pm 17:50 Mostly Sunny 66 19 41 5 40 40 VRB 5 7 30.30 1026 7 11 N/A
6:20 pm 18:20 Mostly Sunny 66 19 39 4 37 37 N 3 6 30.30 1026 7 11 N/A
6:50 pm 18:50 Mostly Sunny 68 20 41 5 38 38 N 3 6 30.27 1025 7 11 N/A

Powered by AerisWeather